Location: Wanzleben
(52.0609°N, 11.4408°E)
Time: 10:34:13
(UTC+00:00)

Cosmos 2263 Rocket - Pass Details

Date: 21 January 2021
Orbit: 825 x 847 km, 71.0° (Epoch: 24 February)

Event Time Altitude Azimuth Distance (km) Brightness Sun altitude
Rises 16:58:22 0° 215° (SW) 3,398 6.3 -11.4°
Reaches altitude 10° 17:00:50 10° 218° (SW) 2,465 5.5 -11.8°
Maximum altitude 17:06:29 73° 303° (WNW) 886 2.4 -12.6°
Drops below altitude 10° 17:12:10 10° 28° (NNE) 2,469 4.2 -13.4°
Enters shadow 17:12:45 - 29° (NNE) 2,689 4.4 -13.5°
